Wind_Speed
12 13 13 13 13 13 14 15 15 15 16 17 18 19 19 21 22 19 18 17 15 21 17 12 14 18 18 25 25 20 15 20 23 23 15 16 7 13 15 16 9 14 15 7 3
12 11 10 11 12 13 13 14 15 16 16 17 18 19 19 20 22 24 18 15 12 15 13 16 18 19 24 20 27 20 16 26 21 19 15 13 6 13 11 16 17 16 15 14 11
11 11 10 10 10 11 12 13 14 15 16 17 18 18 17 17 17 1 4 4 7 7 6 12 18 20 25 26 26 25 25 22 20 23 17 18 15 17 17 17 18 19 20 20 15
11 10 9 9 10 12 13 14 15 16 16 16 17 17 16 11 6 3 10 13 15 9 8 11 17 22 22 24 29 26 28 25 26 29 14 21 26 22 24 24 24 23 17 16 18
8 8 8 10 12 14 15 16 17 18 18 19 19 17 13 7 18 15 17 15 12 12 12 13 17 21 22 20 26 25 23 29 25 24 26 25 25 25 30 26 23 24 25 21 21
6 7 8 10 12 14 15 16 18 18 18 18 18 15 9 16 8 8 13 11 10 11 17 17 18 20 24 22 23 24 24 28 28 31 26 25 27 30 32 27 27 27 29 27 24
7 9 10 12 14 15 16 18 19 20 20 18 15 11 11 18 13 12 14 16 15 16 17 19 21 22 15 19 26 26 23 23 22 22 20 21 27 29 30 29 30 29 24 22 22
9 10 11 12 14 15 16 17 18 18 15 13 11 2 9 8 9 5 6 10 7 10 18 22 18 25 29 27 31 18 20 22 22 24 25 22 30 23 28 25 28 28 28 20 19
8 8 10 11 13 12 13 13 13 12 5 9 6 3 5 6 3 13 17 20 18 15 12 15 17 23 21 20 20 21 22 24 22 21 19 20 29 22 30 17 18 15 17 21 18
8 8 9 10 11 11 11 9 10 3 12 5 2 5 2 12 19 12 14 12 15 15 9 12 14 16 17 16 21 19 22 22 23 19 17 19 26 17 18 16 15 19 19 16 17
6 8 9 9 9 10 10 6 5 3 4 2 4 3 9 14 5 8 12 7 11 13 14 17 14 19 21 23 26 24 24 24 22 14 15 22 18 19 20 22 20 21 18 19 19
6 8 8 7 6 9 9 5 4 4 4 1 2 5 8 9 8 11 12 6 7 13 15 15 19 18 20 23 24 25 24 26 25 21 17 18 22 20 21 17 19 24 22 21 17
7 6 6 4 1 7 10 5 4 3 7 5 2 5 10 11 7 16 16 13 11 12 14 21 23 11 14 20 24 24 25 23 24 19 15 20 24 24 26 26 26 23 22 15 10
6 3 3 1 3 2 2 6 7 1 5 8 4 2 12 15 6 15 15 13 12 13 13 15 15 22 24 20 18 21 20 23 22 17 18 22 21 23 21 20 20 24 17 12 13
4 2 0 2 3 1 5 7 5 1 5 4 6 3 14 7 16 9 19 12 15 16 13 19 20 12 19 22 20 22 16 14 13 16 19 24 16 17 12 15 12 15 15 13 8
3 2 0 3 1 3 4 3 0 6 2 4 2 8 13 16 14 12 17 15 19 20 17 24 25 19 19 17 18 20 23 19 15 15 16 27 22 19 15 18 18 14 14 11 9
3 2 2 2 4 5 2 1 6 3 1 4 5 10 15 9 12 11 17 13 12 12 16 20 19 17 21 19 17 15 14 11 10 12 20 20 20 17 10 15 19 16 12 8 6
4 4 4 2 1 3 1 6 4 6 5 6 9 15 9 9 8 14 14 13 13 9 12 15 17 7 9 15 16 20 17 12 15 13 16 24 16 16 22 7 12 14 10 7 5
7 3 1 2 0 1 5 3 6 5 4 8 14 7 4 7 9 14 11 15 10 10 13 13 19 7 7 8 10 12 15 20 22 20 10 10 16 6 9 14 11 13 11 5 4
4 5 2 2 3 1 2 4 1 3 6 6 7 3 10 14 12 11 11 9 11 12 13 16 19 18 19 10 12 7 14 10 8 6 19 15 14 8 17 15 13 11 7 4 1
6 4 4 6 8 1 2 5 2 1 5 5 8 12 14 15 12 13 12 12 10 10 13 17 17 19 21 14 11 1 11 13 11 10 12 15 13 16 18 16 13 10 4 0 5
3 2 3 7 1 0 4 3 0 2 1 3 5 10 11 13 15 17 18 16 17 14 16 17 8 12 20 11 4 6 5 2 6 17 14 16 8 16 20 14 11 9 2 3 7
5 4 4 4 2 4 4 3 1 2 2 3 8 9 11 15 16 13 15 14 14 14 9 10 6 9 14 16 9 2 3 2 6 3 10 13 5 11 9 14 11 3 3 6 9
4 2 3 5 5 6 3 2 1 1 6 5 9 13 12 13 14 9 15 10 13 18 21 10 15 16 12 15 5 14 6 10 7 7 8 8 7 2 6 13 1 4 9 10 11
3 1 1 4 3 4 2 4 2 3 2 8 5 6 14 8 15 13 16 17 19 24 13 14 16 17 17 22 21 17 16 12 10 13 14 16 7 11 14 9 10 10 10 14 13
3 4 2 8 6 4 3 3 1 4 1 5 7 12 13 10 7 15 19 17 11 13 10 8 8 16 17 18 21 21 20 15 15 14 17 18 19 14 15 9 11 14 15 17 18
3 5 5 5 4 5 4 3 2 4 3 5 7 11 12 14 24 28 27 26 20 17 16 14 12 12 16 16 14 14 17 18 18 16 14 16 17 16 14 13 15 18 19 21 20
Wind_Direction
313 320 325 327 325 325 325 327 327 327 327 327 326 325 324 320 314 309 284 265 251 265 260 237 234 230 232 236 232 235 255 250 249 251 251 254 189 217 252 235 200 206 247 245 304
314 317 321 322 322 324 326 328 329 331 331 331 330 328 328 326 318 298 268 270 281 274 258 230 228 224 223 231 230 227 237 244 257 269 270 244 214 236 222 231 229 223 233 240 250
314 318 322 324 327 326 327 329 330 329 329 332 332 332 333 337 321 66 241 304 334 325 226 241 234 229 233 231 229 225 243 259 259 264 278 277 264 231 227 232 227 233 234 236 229
317 321 327 330 328 326 325 325 321 321 322 323 323 325 329 340 292 327 295 293 289 305 257 246 231 239 234 236 232 243 244 259 262 268 248 258 267 260 251 253 262 263 259 249 248
307 317 326 326 323 322 319 319 315 315 314 312 312 314 321 274 273 282 296 297 289 258 246 243 236 234 242 245 248 238 249 250 264 252 267 260 261 263 261 257 248 256 255 253 252
302 310 319 318 318 317 317 314 311 308 305 302 303 307 300 268 301 289 288 283 282 263 245 243 246 249 259 254 255 262 257 251 252 258 250 252 262 260 254 254 252 249 253 252 248
300 312 317 318 319 319 320 316 315 308 302 301 301 303 268 256 297 290 293 290 273 260 260 247 249 259 265 259 261 264 264 260 244 248 245 246 253 246 254 251 248 246 239 245 247
305 315 315 318 319 323 320 320 313 307 312 313 319 250 266 304 295 326 312 307 295 284 260 252 256 258 255 262 280 263 262 255 247 244 240 228 259 250 246 238 233 239 236 240 235
299 306 308 314 318 324 322 324 313 312 321 327 26 265 299 331 340 300 296 286 279 287 275 249 242 248 249 242 253 248 256 257 259 238 245 227 251 251 246 208 232 223 213 221 228
296 300 308 316 323 328 331 332 337 33 347 358 301 252 283 331 315 320 325 282 269 259 260 228 232 237 228 242 241 247 248 252 255 262 257 236 259 243 246 235 231 245 233 235 240
296 299 309 319 329 341 349 342 313 196 15 344 55 21 352 344 348 339 343 290 257 239 252 203 227 236 238 232 252 269 270 271 270 266 271 268 258 257 252 224 222 240 241 252 239
283 294 306 326 346 355 34 72 56 304 261 187 73 12 357 358 305 3 355 330 307 253 243 253 236 253 259 258 261 254 254 261 269 276 274 267 274 270 273 256 228 242 248 239 233
270 287 314 328 1 40 44 46 346 304 253 152 158 18 353 322 294 346 349 334 297 288 262 257 265 251 264 250 255 254 256 259 266 275 277 272 261 260 260 257 249 237 241 236 197
264 283 327 70 33 7 302 346 322 291 248 129 160 76 342 326 214 319 346 332 294 290 306 285 283 267 261 249 265 258 257 261 267 268 255 249 264 257 253 228 232 223 210 188 185
249 275 260 156 230 146 267 314 320 353 262 69 90 327 336 2 321 310 325 312 292 297 290 275 291 252 264 264 254 258 280 282 272 254 269 252 257 255 209 208 195 192 177 176 166
214 229 216 356 327 283 296 312 5 235 112 109 56 347 327 315 316 316 320 301 279 273 267 270 266 267 274 271 267 259 269 258 251 268 252 246 248 249 231 212 186 178 169 164 166
187 174 125 43 236 284 334 235 249 285 135 76 343 327 314 336 308 331 326 318 301 308 294 299 286 267 244 244 245 239 232 252 244 228 237 236 235 247 271 220 182 163 163 174 154
163 141 72 67 285 301 352 232 258 49 34 358 318 301 289 332 328 332 319 316 314 279 288 300 285 268 1 283 266 230 225 220 223 233 248 228 235 251 230 86 86 131 162 168 177
139 80 47 299 265 2 251 253 26 27 3 324 305 301 293 322 327 309 325 300 298 340 305 315 288 313 298 315 315 255 233 238 256 278 274 254 217 100 135 144 160 162 172 157 188
120 147 7 98 109 1 264 65 91 26 332 302 302 318 317 323 314 325 324 328 331 324 324 297 295 295 299 227 248 307 291 232 228 218 236 243 220 209 173 168 163 152 152 185 242
161 188 322 94 74 334 38 70 103 105 330 313 317 301 302 306 304 300 294 293 294 336 314 289 274 278 281 262 300 209 270 221 236 247 259 239 239 227 186 167 161 137 156 69 346
153 120 335 92 109 265 63 29 315 311 278 281 280 275 292 307 301 299 293 287 317 320 303 297 300 284 277 285 355 257 290 1 254 224 236 255 247 322 153 159 166 147 143 353 319
131 113 27 27 102 77 102 135 324 275 340 320 296 294 301 291 293 286 290 305 298 294 281 329 286 300 272 251 141 347 315 276 266 230 280 252 205 207 184 182 170 120 1 318 302
137 125 91 70 73 100 143 101 37 293 296 280 282 285 297 304 292 283 290 290 285 287 291 291 269 263 285 301 177 277 233 288 301 287 306 263 162 156 292 247 300 355 326 309 306
120 135 141 148 120 113 196 164 146 5 242 280 290 330 334 305 311 321 324 315 312 300 249 231 251 275 286 293 292 282 282 256 265 280 281 292 286 200 249 310 323 332 315 309 304
117 149 184 115 128 182 165 135 191 23 315 312 319 334 317 306 301 292 307 308 303 302 313 256 268 279 285 281 291 283 275 266 258 263 272 286 289 291 278 313 322 317 311 307 303
128 132 144 139 164 212 137 104 91 20 246 284 278 283 303 334 318 297 288 282 276 277 282 286 281 289 291 299 297 280 270 267 263 258 256 269 275 294 317 313 316 320 313 307 302
Height
1516 1515 1515 1513 1512 1510 1509 1507 1505 1503 1501 1499 1497 1494 1493 1490 1487 1485 1485 1485 1481 1479 1480 1482 1483 1484 1486 1484 1483 1481 1476 1463 1455 1452 1445 1445 1451 1456 1457 1455 1460 1464 1463 1462 1466
1516 1514 1513 1511 1510 1508 1506 1504 1503 1501 1499 1497 1495 1492 1490 1487 1483 1478 1481 1478 1477 1476 1476 1479 1480 1481 1479 1477 1477 1474 1464 1456 1449 1443 1441 1445 1452 1452 1458 1460 1457 1461 1463 1463 1465
1514 1512 1511 1509 1507 1505 1504 1503 1501 1499 1497 1495 1493 1490 1488 1486 1480 1475 1476 1476 1475 1474 1474 1477 1478 1476 1474 1470 1467 1466 1458 1453 1447 1447 1448 1446 1446 1453 1451 1451 1452 1453 1455 1458 1460
1512 1511 1509 1507 1505 1503 1502 1500 1498 1497 1494 1492 1490 1488 1486 1485 1479 1475 1476 1475 1474 1474 1476 1475 1474 1473 1469 1463 1462 1457 1455 1456 1453 1450 1452 1452 1452 1448 1448 1450 1451 1450 1451 1453 1456
1510 1509 1508 1506 1503 1501 1499 1496 1495 1493 1491 1488 1487 1485 1484 1484 1478 1472 1473 1473 1472 1472 1474 1474 1471 1467 1462 1460 1458 1451 1452 1451 1452 1454 1453 1452 1449 1447 1443 1446 1449 1450 1451 1452 1454
1508 1507 1506 1504 1501 1499 1496 1494 1492 1490 1487 1485 1483 1482 1482 1480 1474 1471 1471 1471 1473 1472 1470 1471 1468 1466 1460 1454 1452 1450 1447 1446 1447 1448 1448 1450 1445 1445 1440 1444 1444 1446 1447 1448 1449
1506 1504 1502 1500 1498 1495 1493 1490 1488 1485 1482 1481 1480 1479 1481 1475 1472 1471 1471 1470 1470 1470 1468 1467 1466 1465 1461 1458 1452 1450 1447 1442 1440 1440 1438 1443 1435 1432 1435 1435 1435 1437 1441 1442 1444
1504 1502 1500 1498 1496 1493 1490 1488 1484 1480 1479 1477 1475 1478 1475 1472 1469 1468 1470 1468 1467 1467 1466 1464 1464 1461 1458 1458 1451 1449 1443 1439 1430 1432 1430 1435 1421 1420 1421 1422 1425 1429 1431 1436 1438
1502 1500 1498 1496 1494 1492 1489 1486 1481 1478 1477 1476 1477 1478 1472 1471 1469 1468 1468 1467 1465 1463 1461 1461 1461 1459 1459 1454 1451 1443 1441 1431 1422 1418 1417 1421 1415 1415 1415 1417 1421 1422 1427 1429 1431
1499 1498 1496 1495 1492 1490 1487 1484 1480 1478 1476 1476 1477 1480 1474 1473 1467 1463 1464 1461 1461 1460 1458 1458 1456 1451 1450 1447 1439 1440 1434 1427 1424 1419 1414 1421 1411 1411 1409 1415 1418 1421 1422 1425 1427
1497 1496 1495 1493 1491 1489 1486 1484 1484 1483 1481 1479 1477 1475 1471 1470 1466 1465 1463 1459 1457 1456 1450 1445 1448 1442 1436 1435 1435 1434 1432 1429 1418 1414 1417 1415 1410 1408 1405 1405 1413 1416 1417 1419 1420
1495 1495 1494 1492 1491 1489 1486 1486 1485 1488 1482 1478 1475 1473 1471 1472 1468 1465 1463 1457 1453 1448 1444 1442 1433 1435 1433 1430 1429 1428 1430 1425 1421 1417 1423 1424 1417 1410 1404 1400 1405 1410 1411 1414 1415
1493 1492 1493 1491 1490 1489 1489 1487 1483 1484 1480 1475 1474 1473 1474 1473 1469 1465 1462 1456 1450 1445 1439 1435 1427 1426 1428 1427 1427 1424 1425 1425 1426 1421 1422 1422 1416 1413 1405 1399 1400 1403 1406 1407 1411
1491 1491 1491 1489 1492 1489 1490 1486 1483 1480 1465 1468 1469 1474 1474 1468 1464 1463 1461 1458 1450 1443 1440 1433 1426 1423 1422 1425 1425 1424 1421 1423 1425 1428 1429 1421 1414 1399 1391 1385 1390 1394 1402 1407 1413
1489 1489 1489 1488 1488 1488 1487 1482 1481 1482 1454 1469 1469 1475 1474 1474 1471 1460 1461 1455 1449 1443 1442 1434 1428 1425 1424 1421 1421 1419 1421 1423 1423 1426 1424 1415 1411 1389 1380 1389 1393 1393 1400 1406 1412
1487 1487 1487 1488 1487 1485 1481 1480 1482 1469 1457 1470 1473 1474 1472 1469 1469 1463 1459 1453 1446 1441 1437 1429 1426 1422 1417 1420 1420 1422 1426 1423 1428 1431 1431 1409 1405 1387 1382 1382 1385 1395 1402 1407 1412
1485 1486 1485 1485 1488 1481 1481 1483 1467 1453 1467 1471 1474 1475 1473 1469 1466 1462 1457 1447 1441 1443 1436 1422 1412 1411 1409 1415 1418 1421 1430 1442 1439 1435 1411 1397 1397 1385 1375 1369 1377 1391 1405 1410 1411
1483 1484 1483 1483 1482 1481 1480 1477 1463 1469 1473 1478 1477 1474 1469 1472 1467 1463 1455 1445 1440 1437 1438 1433 1425 1411 1417 1415 1413 1411 1418 1432 1431 1411 1396 1387 1392 1379 1375 1382 1385 1394 1404 1408 1410
1483 1484 1485 1482 1480 1479 1479 1460 1471 1478 1485 1484 1477 1467 1462 1465 1467 1461 1455 1451 1444 1444 1445 1441 1429 1414 1423 1424 1422 1413 1420 1413 1417 1408 1411 1387 1378 1382 1382 1387 1394 1398 1402 1408 1410
1486 1487 1485 1481 1479 1481 1473 1480 1480 1488 1490 1487 1478 1474 1472 1469 1468 1463 1459 1453 1452 1452 1450 1447 1439 1424 1420 1425 1423 1429 1416 1425 1428 1424 1416 1387 1379 1381 1385 1389 1391 1397 1403 1408 1408
1486 1485 1484 1482 1479 1481 1473 1480 1486 1491 1493 1488 1481 1479 1476 1473 1467 1464 1461 1457 1454 1454 1455 1448 1441 1431 1421 1420 1419 1428 1425 1410 1414 1415 1398 1392 1382 1375 1380 1386 1392 1399 1405 1406 1406
1484 1485 1484 1482 1482 1478 1476 1486 1494 1490 1491 1489 1488 1483 1478 1474 1470 1466 1461 1456 1457 1458 1453 1447 1445 1432 1423 1412 1419 1423 1420 1433 1417 1401 1397 1387 1384 1378 1374 1389 1393 1399 1402 1403 1404
1483 1485 1485 1483 1481 1480 1489 1490 1492 1490 1487 1487 1487 1484 1481 1477 1473 1465 1460 1459 1460 1458 1453 1456 1440 1438 1420 1406 1417 1426 1429 1427 1429 1429 1419 1397 1397 1391 1392 1389 1389 1393 1398 1400 1402
1484 1486 1487 1485 1484 1483 1491 1490 1489 1492 1490 1490 1488 1485 1480 1476 1470 1468 1460 1458 1460 1457 1456 1458 1449 1439 1430 1415 1438 1428 1434 1428 1424 1420 1405 1408 1401 1403 1407 1389 1388 1392 1396 1399 1399
1483 1484 1483 1486 1485 1487 1489 1490 1490 1488 1491 1489 1483 1484 1484 1480 1470 1466 1468 1461 1454 1449 1447 1450 1446 1438 1429 1417 1414 1412 1414 1417 1421 1420 1414 1390 1389 1403 1391 1388 1390 1393 1395 1396 1396
1482 1483 1485 1484 1488 1489 1493 1488 1488 1487 1492 1490 1489 1487 1483 1478 1479 1475 1468 1463 1460 1451 1445 1442 1448 1436 1430 1421 1414 1408 1406 1408 1408 1411 1407 1398 1389 1385 1386 1385 1388 1391 1393 1394 1394
1484 1483 1484 1487 1487 1487 1485 1489 1490 1494 1490 1490 1490 1486 1478 1474 1474 1469 1465 1460 1456 1453 1450 1448 1442 1436 1431 1420 1415 1411 1401 1399 1399 1398 1403 1399 1394 1386 1388 1387 1389 1391 1393 1392 1390